CW4778 Auckland NZ current weather conditions

sailwx.info

Wind from 238 at 1 knots gusting 4

Air temperature 15.6° C
Dewpoint 11.1° C

Last reported at 2016-Apr-29 10:38 UTC.
Time now 2016-Apr-29 12:01 UTC

Location: S 36°52' E 174°44'.
View on Google Maps.

See reports from other nearby stations

  
Tides and Currents Weather Stations Pressure Air Temp Water Temp Dewpoint Dewpoint Depression Visibility Wind Speed Wind Dir Waves Ship Positions
date/time (UTC)wind fromknots sea level pressurealtimeterstation pressurevisibilityair tempwater tempwave heightnotes
2016-Apr-29 10:38 238 1 gusting 4 15.6
2016-Apr-29 10:28 257 1 gusting 6 15.6
2016-Apr-29 10:18 225 2 gusting 7 16.1
2016-Apr-29 09:48 245 1 gusting 10 16.1
2016-Apr-29 09:08 247 5 gusting 8 16.1
2016-Apr-29 08:38 229 6 gusting 10 16.1
2016-Apr-29 08:28 243 4 gusting 7 16.1
2016-Apr-29 08:18 197 3 gusting 8 16.1
2016-Apr-29 07:58 261 2 gusting 5 16.1
2016-Apr-29 06:58 240 3 gusting 8 16.7
2016-Apr-29 06:28 264 1 gusting 8 16.7
2016-Apr-29 06:18 248 1 gusting 6 16.7
2016-Apr-29 05:58 252 2 gusting 10 16.7
2016-Apr-29 05:48 278 0 gusting 6 16.7
2016-Apr-29 05:28 16.7
2016-Apr-29 04:58 319 1 gusting 6 17.2
2016-Apr-29 04:38 278 3 gusting 7 17.2
2016-Apr-29 04:08 267 3 gusting 7 17.2
2016-Apr-29 03:58 255 5 gusting 8 17.2
2016-Apr-29 03:38 271 5 gusting 11 17.8
2016-Apr-29 03:18 262 6 gusting 12 17.8
2016-Apr-29 03:08 260 3 gusting 8 18.3
2016-Apr-29 02:58 264 2 gusting 7 18.3
2016-Apr-29 02:48 220 1 gusting 10 18.3
2016-Apr-29 02:38 196 6 gusting 13 18.3
2016-Apr-29 02:08 300 5 gusting 13 17.8
2016-Apr-29 01:58 248 7 gusting 12 17.8
2016-Apr-29 01:18 290 2 gusting 10 18.3
2016-Apr-29 01:08 231 7 gusting 11 18.3
2016-Apr-28 23:28 258 4 gusting 10 17.8
2016-Apr-28 23:18 271 6 gusting 7 17.8
2016-Apr-28 23:08 315 3 gusting 8 17.8
2016-Apr-28 22:58 288 2 gusting 6 17.8
2016-Apr-28 22:38 275 2 gusting 6 17.8
2016-Apr-28 22:18 307 2 gusting 6 17.2
2016-Apr-28 22:08 280 2 gusting 6 17.2
2016-Apr-28 21:58 309 0 gusting 6 17.2
2016-Apr-28 21:48 279 1 gusting 5 16.7
2016-Apr-28 21:38 277 16.7
2016-Apr-28 21:28 291 2 gusting 5 16.7
2016-Apr-28 21:18 293 16.1
2016-Apr-28 21:08 298 1 gusting 4 16.1
2016-Apr-28 20:58 306 16.1
2016-Apr-28 20:48 304 0 gusting 2 16.1
2016-Apr-28 20:38 338 1 gusting 4 16.1
2016-Apr-28 20:28 319 0 gusting 4 16.1
2016-Apr-28 20:18 310 1 gusting 5 16.1
2016-Apr-28 19:58 271 1 gusting 6 15.6
2016-Apr-28 19:48 289 1 gusting 5 15.6
2016-Apr-28 19:28 271 1 gusting 2 15.6
2016-Apr-28 19:18 257 15.6
2016-Apr-28 19:08 262 1 gusting 6 15.6
2016-Apr-28 18:58 274 0 gusting 5 15.6
2016-Apr-28 17:48 306 1 gusting 4 15.6
2016-Apr-28 17:38 279 15.6
2016-Apr-28 17:28 280 15.6
2016-Apr-28 17:18 281 1 gusting 4 15.6
2016-Apr-28 17:08 285 15.6
2016-Apr-28 16:58 320 15.6
2016-Apr-28 16:38 282 15.6
2016-Apr-28 16:18 282 0 gusting 1 15.6
2016-Apr-28 15:58 257 2 gusting 5 15.6
2016-Apr-28 15:48 265 0 gusting 6 15.6
2016-Apr-28 15:28 235 0 gusting 6 15.6
2016-Apr-28 15:18 215 0 gusting 5 15.6
2016-Apr-28 15:08 237 0 gusting 5 16.1
2016-Apr-28 14:38 247 1 gusting 4 15.6
2016-Apr-28 14:28 205 3 gusting 6 16.1
2016-Apr-28 14:18 214 0 gusting 6 16.1
2016-Apr-28 13:58 223 1 gusting 2 15.6
2016-Apr-28 13:48 242 1 gusting 5 15.6
2016-Apr-28 13:38 221 1 gusting 5 15.6
2016-Apr-28 13:18 308 15.0
2016-Apr-28 13:08 279 0 gusting 1 15.0
2016-Apr-28 12:58 279 15.0
2016-Apr-28 12:48 282 15.0
2016-Apr-28 12:38 283 15.6
2016-Apr-28 11:58 279 15.6
2016-Apr-28 11:38 278 15.6
2016-Apr-28 11:28 320 15.6
2016-Apr-28 11:08 282 15.6
2016-Apr-28 10:48 302 15.6
2016-Apr-28 10:38 280 15.6
2016-Apr-28 10:28 286 15.6
2016-Apr-28 09:58 283 16.1
2016-Apr-28 09:48 281 1 gusting 4 16.1
2016-Apr-28 09:38 350 0 gusting 2 16.1
2016-Apr-28 09:28 279 0 gusting 2 16.1
2016-Apr-28 09:18 283 2 gusting 4 16.1
2016-Apr-28 09:08 275 0 gusting 5 16.1
2016-Apr-28 08:58 278 1 gusting 5 16.1
2016-Apr-28 08:08 340 1 gusting 7 16.7
2016-Apr-28 07:48 275 4 gusting 7 16.7
2016-Apr-28 07:28 260 2 gusting 5 16.7
2016-Apr-28 07:18 223 1 gusting 4 16.7
2016-Apr-28 07:08 234 1 gusting 2 16.7
2016-Apr-28 06:38 213 2 gusting 6 16.7
2016-Apr-28 06:18 219 3 gusting 6 16.7
2016-Apr-28 06:08 249 1 gusting 6 16.7
2016-Apr-28 05:58 249 2 gusting 6 16.7
2016-Apr-28 05:38 260 0 gusting 5 16.7
2016-Apr-28 05:28 260 2 gusting 7 17.2
2016-Apr-28 05:18 256 5 gusting 7 17.2
2016-Apr-28 05:08 231 3 gusting 5 17.2
2016-Apr-28 04:58 273 1 gusting 7 17.2
2016-Apr-28 04:38 229 2 gusting 8 17.8
2016-Apr-28 03:48 261 2 gusting 10 18.3
2016-Apr-28 03:28 196 6 gusting 10 18.3
2016-Apr-28 03:08 215 5 gusting 10 18.3
2016-Apr-28 02:48 213 5 gusting 10 18.9
2016-Apr-28 02:28 209 4 gusting 7 18.9
2016-Apr-28 02:18 182 3 gusting 13 18.9
2016-Apr-28 02:08 196 3 gusting 8 18.3
2016-Apr-28 01:58 186 6 gusting 11 18.3
2016-Apr-28 01:48 201 6 gusting 11 18.3
2016-Apr-28 01:28 184 4 gusting 6 18.9
2016-Apr-28 01:18 228 4 gusting 8 18.9
2016-Apr-28 01:08 301 3 gusting 6 19.4
2016-Apr-28 00:58 263 3 gusting 8 18.9
2016-Apr-28 00:48 278 4 gusting 7 18.9
2016-Apr-28 00:28 261 3 gusting 6 18.9
2016-Apr-28 00:08 255 1 gusting 7 18.9
2016-Apr-27 23:58 260 5 gusting 8 18.9
2016-Apr-27 23:48 249 4 gusting 6 18.9
2016-Apr-27 23:38 258 6 gusting 7 18.3
2016-Apr-27 23:28 328 2 gusting 6 18.3
2016-Apr-27 23:08 235 17.8
2016-Apr-27 22:58 213 1 gusting 2 17.2
2016-Apr-27 22:48 302 17.2
2016-Apr-27 22:38 304 17.2
2016-Apr-27 22:28 309 1 gusting 4 17.2
2016-Apr-27 22:18 309 1 gusting 5 17.2
2016-Apr-27 22:08 300 17.2
2016-Apr-27 21:58 299 0 gusting 2 17.2
2016-Apr-27 21:38 341 0 gusting 2 16.7
2016-Apr-27 21:28 354 16.7
2016-Apr-27 21:18 320 0 gusting 2 16.1
2016-Apr-27 20:38 342 15.6
2016-Apr-27 20:18 343 15.0
2016-Apr-27 20:08 320 0 gusting 2 15.0
2016-Apr-27 19:58 300 15.0
2016-Apr-27 19:38 299 15.0
2016-Apr-27 19:28 290 0 gusting 2 15.0
2016-Apr-27 19:18 334 14.4
2016-Apr-27 18:48 347 14.4
2016-Apr-27 18:18 359 15.0
2016-Apr-27 17:58 300 0 gusting 1 14.4
2016-Apr-27 17:48 299 14.4
2016-Apr-27 17:18 214 0 gusting 2 14.4
2016-Apr-27 16:58 230 14.4
2016-Apr-27 16:38 229 14.4
2016-Apr-27 16:28 234 14.4
2016-Apr-27 16:18 228 14.4
2016-Apr-27 16:08 229 14.4
2016-Apr-27 15:48 229 14.4
2016-Apr-27 15:08 223 14.4
2016-Apr-27 14:58 221 14.4
2016-Apr-27 14:48 222 14.4
2016-Apr-27 14:18 222 0 gusting 2 13.9
2016-Apr-27 13:48 221 14.4
2016-Apr-27 13:38 219 13.9
2016-Apr-27 13:28 220 13.9
2016-Apr-27 13:18 220 13.9
2016-Apr-27 13:08 220 13.9
2016-Apr-27 12:58 219 13.9
2016-Apr-27 12:38 224 13.9
2016-Apr-27 12:18 222 13.9